Home   Weather   39°49'N, 104°59'W   Past weeks
Flag for USA

Past Weather in 39°49'N, 104°59'W, USA — Yesterday and Last 2 Weeks

Now
37 °F

Light rain. Fog.


Feels Like: 31 °F
Forecast: 42 / 35 °F
Wind: 8 mph from Northeast

Location: Buckley Air Force Base

Current Time: May 20, 2019 at 6:43:17 pm

Latest Report: May 20, 2019 at 5:58 pm


Visibility: 3 mi

Pressure: 29.77 "Hg

Humidity: 100%

Dew Point: 37 °F

Location of 39°49'N, 104°59'WLocation

Past Weather in 39°49'N, 104°59'W — Graph

°F

39°49'N, 104°59'W Temperature Yesterday

Maximum temperature yesterday: 58 °F (at 1:58 pm)
Minimum temperature yesterday: 36 °F (at 5:58 am)
Average temperature yesterday: 45 °F

High & Low Weather Summary for the Past Weeks

 TemperatureHumidityPressure
High82 °F (May 15, 2:58 pm)100% (May 6, 3:58 am)30.18 "Hg (May 6, 3:58 am)
Low30 °F (May 9, 6:43 am)16% (May 15, 4:58 pm)29.30 "Hg (May 17, 12:58 pm)
Average51 °F69%29.83 "Hg
* Reported May 5 5:58 pm — May 20 5:10 pm, 39°49'N, 104°59'W. Weather by CustomWeather, © 2019

Note: Actual official high and low records may vary slightly from our data, if they occured in-between our weather recording intervals... More about our weather records

Advertising

39°49'N, 104°59'W Weather History for the Previous 24 Hours

Scroll right to see more
 ConditionsComfort  
Time TempWeatherWind HumidityBarometerVisibility
5:10 pm
Mon, May 20
39 °FLight rain. Fog.7 mph100%29.77 "Hg4 mi
4:58 pm39 °FFog.7 mph100%29.77 "Hg5 mi
4:22 pm37 °FLight rain. Fog.7 mph100%29.77 "Hg5 mi
3:58 pm37 °FLight rain. Fog.6 mph100%29.79 "Hg2 mi
2:58 pm38 °FLight rain. Mostly cloudy.6 mph100%29.76 "Hg6 mi
2:47 pm37 °FLight rain. Fog.6 mph100%29.79 "Hg5 mi
2:35 pm37 °FLight rain. Fog.6 mph100%29.79 "Hg6 mi
1:58 pm35 °FLight rain. Fog.3 mph100%29.80 "Hg3 mi
11:58 am38 °FLight rain. Fog.10 mph100%29.80 "Hg2 mi
11:14 am37 °FLight rain. Fog.8 mph100%29.82 "Hg2 mi
10:58 am38 °FLight rain. Fog.7 mph100%29.83 "Hg2 mi
9:58 am37 °FLight rain. Fog.7 mph100%29.84 "Hg2 mi
8:58 am36 °FLight rain. Fog.8 mph100%29.86 "Hg2 mi
7:58 am36 °FDrizzle. Fog.6 mph100%29.86 "Hg2 mi
6:58 am35 °FLight rain. Fog.8 mph100%29.85 "Hg3 mi
5:58 am35 °FLight rain. Fog.9 mph100%29.83 "Hg5 mi
4:58 am36 °FLight rain. Fog.10 mph100%29.83 "Hg6 mi
4:28 am37 °FLow clouds.10 mph93%29.82 "Hg10 mi
3:58 am37 °FDrizzle. Mostly cloudy.9 mph99%29.84 "Hg9 mi
3:33 am39 °FLight rain. Mostly cloudy.13 mph93%29.83 "Hg10 mi
2:58 am42 °FOvercast.7 mph87%29.81 "Hg10 mi
1:58 am43 °FOvercast.9 mph79%29.81 "Hg10 mi
12:58 am44 °FOvercast.7 mph79%29.83 "Hg10 mi
11:58 pm
Sun, May 19
44 °FOvercast.9 mph81%29.83 "Hg10 mi
10:58 pm44 °FOvercast.No wind82%29.85 "Hg10 mi
10:45 pm46 °FPassing clouds.5 mph76%29.85 "Hg10 mi
9:58 pm46 °FMostly cloudy.6 mph75%29.86 "Hg10 mi
8:58 pm46 °FMostly cloudy.9 mph73%29.85 "Hg10 mi
7:58 pm46 °FBroken clouds.10 mph74%29.86 "Hg10 mi
6:58 pm48 °FBroken clouds.12 mph69%29.82 "Hg10 mi
Weather by CustomWeather, © 2019

See weather overview